Regional Weather Roundup
Issued by NWS Northern Indiana

Home | Current Version | Previous Version | Text Only | Print | Product List | Glossary Off
Versions: 1 2 3 4 5 6 7 8 9 10 11 12 13 14 15 16 17 18 19 20 21 22 23 24 25 26 27 28 29 30 31 32 33 34 35 36 37 38 39 40 41 42 43 44 45 46 47 48 49 50

000
ASUS43 KIWX 281900
RWRIWX

KIWX WEATHER ROUNDUP
NATIONAL WEATHER SERVICE NORTHERN INDIANA
300 PM EDT WED JUN 28 2017

NOTE: "FAIR" INDICATES FEW OR NO CLOUDS BELOW 12,000 FEET WITH NO
SIGNIFICANT WEATHER AND/OR OBSTRUCTIONS TO VISIBILITY.

* THESE STATIONS ARE NOT UNDER NWS QUALITY CONTROL. THEY ALSO MAY NOT
  REPORT WEATHER SUCH AS PRECIPITATION OR FOG.

INZ001>027-282000-
NORTHERN INDIANA

CITY           SKY/WX    TMP DP  RH WIND       PRES   REMARKS
GARY*          CLOUDY    73  57  56 SE12G23   29.92F
MICHIGAN CITY* CLOUDY    72  55  56 S12G17    29.95F
SOUTH BEND     CLOUDY    73  55  53 S13       29.99F
ELKHART*       CLOUDY    75  54  46 S12G18    30.03F
GOSHEN         CLOUDY    75  51  43 SW16      30.04F
MONTICELLO*    CLOUDY    77  55  46 S14G22    30.01F
FORT WAYNE     CLOUDY    76  51  41 S15       30.07F
PERU/GRISSOM   CLOUDY    77  55  47 SW14G22   30.03F

$$
INZ028>050-282000-
CENTRAL INDIANA

CITY           SKY/WX    TMP DP  RH WIND       PRES   REMARKS
LAFAYETTE      CLOUDY    77  59  53 S14G20    30.00F
KOKOMO*        CLOUDY    78  53  41 S17       30.06F
MUNCIE*        CLOUDY    78  51  38 S13G21    30.08F
INDIANAPOLIS   CLOUDY    78  56  46 SW14G25   30.05F

$$
MIZ043>046-050>051-056>058-064>065-071>073-077>080-282000-
SOUTHWEST LOWER MICHIGAN

CITY           SKY/WX    TMP DP  RH WIND       PRES   REMARKS
BATTLE CREEK   CLOUDY    74  52  46 S18G25    30.03F
BENTON HARBOR  LGT RAIN  71  55  56 S13G26    29.91F
COLDWATER*     CLOUDY    74  48  39 SW9G18    30.05F
HILLSDALE*     MOSUNNY   75  46  35 S12G20    30.06F
HOLLAND        CLOUDY    69  58  67 S16       29.93F
GRAND RAPIDS   LGT RAIN  72  56  57 S17G28    29.95F
KALAMAZOO      CLOUDY    76  51  41 S16       30.02F
STURGIS*       CLOUDY    72  55  53 SW13G23   30.04F
THREE RIVERS*  PTSUNNY   74  53  47 S14       30.03F

$$
OHZ001>008-015>018-024>025-282000-
NORTHWEST OHIO

CITY           SKY/WX    TMP DP  RH WIND       PRES   REMARKS
DEFIANCE       CLOUDY    75  51  43 S12       30.07F
FINDLAY        MOSUNNY   78  49  35 SW15G24   30.08F
TOLEDO EXPRESS CLOUDY    76  51  41 S12       30.07F
TOLEDO METCALF MOSUNNY   78  48  34 SW21      30.08F
LIMA           MOSUNNY   75  51  43 SW16      30.09F

$$
AND FOR LAKE MICHIGAN COASTAL AND OPEN LAKE BUOY OBSERVATIONS

STATION/POSITION TEMP    WIND        PRES    VSBY  WAVE
                 AIR SEA DIR/SP/G                  HT/PER
                 (F)     (DEG/KT/KT) (MB)    (MI)  (FT/S)
CALUMET HARBOR    70     150/ 12/ 17 1012.2F
MICHIGAN CITY     72     150/ 15/ 20   N/A
BURNS HARBOR      73     170/ 11/ 20 1013.9F
SOUTH LAKE BUOY   64 61  150/ 25/ 31 1011.3          4/ 5
4 MI NW BRIDGMAN  71 67  170/ 19/ 27 1013.1F         2/ 3
MICHIGAN CITY     71 66  170/ 17/ 21   N/A           2/ 2

$$
&&




USA.gov is the U.S. government's official web portal to all federal, state and local government web resources and services.